Walla Walla, WA

1:24 PM PDT on May 22, 2018 (GMT -0700)
Walla Walla Regional

Weather History for KALW - April, 2013

Change the Weather History Date:

Thursday, April 4, 2013

  Actual Average Record
Temperature  
Mean Temperature 58 °F 50 °F  
Max Temperature 66 °F 60 °F 79 °F (1960)
Min Temperature 50 °F 41 °F 28 °F (1961)
Degree Days  
Heating Degree Days 7 15  
Month to date heating degree days 60  
Since 1 July heating degree days 4417  
Cooling Degree Days 0 0  
Month to date cooling degree days 0  
Year to date cooling degree days 0  
Growing Degree Days 8 (Base 50)    
Moisture  
Dew Point 47 °F    
Average Humidity 73    
Maximum Humidity 94    
Minimum Humidity 51    
Precipitation  
Precipitation 0.28 in 0.07 in 0.70 in (2011)
Month to date precipitation 0.28  
Year to date precipitation 6.87  
Snow  
Snow 0.00 in 0.00 in 0.00 in (2002)
Month to date snowfall 0.0  
Year to date snowfall 6.0  
Since 1 July snowfall 11.7  
Snow Depth -    
Sea Level Pressure  
Sea Level Pressure 29.81 in    
Wind  
Wind Speed 7 mph (South)    
Max Wind Speed 37 mph    
Max Gust Speed 52 mph    
Visibility 8 miles    
Events Rain , Thunderstorm    
T = Trace of Precipitation, MM = Missing Value Source: NWS Daily Summary

Daily Weather History Graph

Daily Weather History Graph

Search for Another Location

Airport or City:

Astronomy

Apr. 04, 2013 Rise Set
Actual Time 6:26 AM PDT 7:26 PM PDT
Civil Twilight 5:56 AM PDT 7:56 PM PDT
Nautical Twilight 5:19 AM PDT 8:33 PM PDT
Astronomical Twilight 4:41 AM PDT 9:11 PM PDT
Moon 3:15 AM PDT (4/4) 1:32 PM PDT (4/4)
Length of Visible Light 14h 00m
Length of Day
12h 59m
Waning Crescent, 32% of the Moon is Illuminated
Apr 4
Waning Crescent
Apr 10
New
Apr 18
First Quarter
Apr 25
Full
May 2
Last Quarter

Hourly Weather History & Observations

Time (PDT) Temp. Dew Point Humidity Pressure Visibility Wind Dir Wind Speed Gust Speed Precip Events Conditions
12:53 AM 55.0 °F 39.0 °F 55% 29.94 in 10.0 mi East 3.5 mph - N/A   Clear
1:53 AM 54.0 °F 39.9 °F 59% 29.92 in 10.0 mi East 6.9 mph - N/A   Clear
2:53 AM 55.9 °F 37.9 °F 51% 29.89 in 10.0 mi ESE 3.5 mph - N/A   Clear
3:53 AM 55.0 °F 37.9 °F 53% 29.88 in 10.0 mi Calm Calm - N/A   Clear
4:53 AM 53.1 °F 37.9 °F 57% 29.86 in 10.0 mi Calm Calm - N/A   Clear
5:53 AM 50.0 °F 41.0 °F 71% 29.86 in 10.0 mi SSW 8.1 mph - N/A   Clear
6:53 AM 50.0 °F 41.0 °F 71% 29.84 in 10.0 mi SE 5.8 mph - N/A   Scattered Clouds
7:53 AM 54.0 °F 41.0 °F 62% 29.82 in 10.0 mi Calm Calm - N/A   Overcast
8:53 AM 55.0 °F 44.1 °F 67% 29.80 in 10.0 mi WNW 5.8 mph - N/A   Mostly Cloudy
9:53 AM 55.0 °F 43.0 °F 64% 29.81 in 10.0 mi SSW 8.1 mph - N/A   Overcast
10:53 AM 55.0 °F 42.1 °F 62% 29.79 in 10.0 mi SSE 3.5 mph - N/A   Overcast
11:53 AM 55.9 °F 43.0 °F 62% 29.81 in 10.0 mi SW 9.2 mph - 0.00 in   Overcast
12:53 PM 55.0 °F 45.0 °F 69% 29.82 in 10.0 mi South 8.1 mph - 0.00 in Rain Light Rain
1:53 PM 54.0 °F 46.9 °F 77% 29.82 in 5.0 mi Calm Calm - 0.01 in Rain Light Rain
2:53 PM 54.0 °F 48.0 °F 80% 29.79 in 7.0 mi East 6.9 mph - 0.03 in Rain Light Rain
3:53 PM 59.0 °F 51.1 °F 75% 29.77 in 10.0 mi East 5.8 mph - 0.01 in Rain Light Rain
4:53 PM 63.0 °F 54.0 °F 72% 29.74 in 10.0 mi East 4.6 mph - 0.00 in   Mostly Cloudy
5:53 PM 66.0 °F 53.1 °F 63% 29.70 in 10.0 mi East 3.5 mph - N/A   Mostly Cloudy
6:53 PM 60.1 °F 55.0 °F 83% 29.68 in 10.0 mi NE 8.1 mph - N/A   Overcast
7:06 PM 60.8 °F 53.6 °F 77% 29.71 in 10.0 mi SW 19.6 mph 35.7 mph N/A Thunderstorm Overcast
7:13 PM 57.2 °F 51.8 °F 82% 29.77 in 7.0 mi West 36.8 mph 51.8 mph 0.01 in Rain , Thunderstorm Light Rain
7:16 PM 55.4 °F 51.8 °F 88% 29.77 in 2.5 mi West 35.7 mph 51.8 mph 0.07 in Rain Heavy Rain
7:20 PM 53.6 °F 51.8 °F 94% 29.78 in 1.5 mi West 28.8 mph 47.2 mph 0.10 in Rain Heavy Rain
7:32 PM 53.6 °F 51.8 °F 94% 29.78 in 2.5 mi WNW 24.2 mph 35.7 mph 0.15 in Rain Heavy Rain
7:43 PM 53.6 °F 50.0 °F 88% 29.81 in 5.0 mi West 18.4 mph 28.8 mph 0.17 in Rain Rain
7:53 PM 53.1 °F 51.1 °F 93% 29.82 in 4.0 mi WSW 5.8 mph - 0.19 in Rain Rain
8:53 PM 54.0 °F 50.0 °F 86% 29.84 in 10.0 mi ESE 5.8 mph - 0.04 in   Mostly Cloudy
9:53 PM 55.0 °F 48.9 °F 80% 29.84 in 10.0 mi South 8.1 mph - N/A   Partly Cloudy
10:53 PM 54.0 °F 48.0 °F 80% 29.84 in 10.0 mi South 6.9 mph - N/A   Clear
11:53 PM 54.0 °F 48.0 °F 80% 29.84 in 10.0 mi South 8.1 mph - N/A   Mostly Cloudy